Date String (YYYY-MM-DD hh:mm:ss) UTC,Instrument flags,absolute air pressure of the measurement (hPa),sample flow rate (lpm),inlet stack bypass flow (lpm),air temperature of the measurement (°C),ambient temperature measured by the external sensor (°C),aerosol sample conditioner tube jacket temperature (°C),OPC LED temperature (°C),internal box temperature (°C),relative humidity of the measurement (%),span deviation,mass concentration of particles derived from Lorenz-Mie calculation of OPC scattering (μg/m³),mass concentration of particles derived from Lorenz-Mie calculation of OPC scattering (μg/m³),mass concentration of particles derived from Lorenz-Mie calculation of OPC scattering (μg/m³)
DateTimeUTC,F1_M11,P_M11,Q1_M11,Q2_M11,T1_M11,T2_M11,T3_M11,T4_M11,T5_M11,U1_M11,ZSPAN_M11,X2_M11,X0_M11,X1_M11
2024-03-03 05:00:00,SystemResetWarning,0811.5,5.00,000.00,022.8,021.8,000.0,031.4,024.5,18.3,0000.0,0002.45,0015.37,0000.81
2024-03-03 05:01:00,SystemResetWarning,0811.5,5.00,000.00,022.8,021.8,000.0,031.4,024.4,18.3,0000.0,0002.48,0015.16,0000.81
2024-03-03 05:02:00,SystemResetWarning,0811.5,4.99,000.00,022.7,021.8,000.0,031.3,024.5,18.4,0000.0,0002.55,0014.89,0000.83
2024-03-03 05:03:00,SystemResetWarning,0811.6,5.00,000.00,022.7,021.8,000.0,031.3,024.4,18.5,0000.0,0002.61,0013.95,0000.84
2024-03-03 05:04:00,SystemResetWarning,0811.5,5.00,000.00,022.7,021.8,000.0,031.3,024.4,18.5,0000.0,0002.70,0013.72,0000.83
2024-03-03 05:05:00,SystemResetWarning,0811.6,5.01,000.00,022.7,021.8,000.0,031.3,024.4,18.6,0000.0,0002.70,0013.25,0000.82
2024-03-03 05:06:00,SystemResetWarning,0811.6,5.01,000.00,022.7,021.8,000.0,031.3,024.4,18.7,0000.0,0002.76,0013.42,0000.83
2024-03-03 05:07:00,SystemResetWarning,0811.6,5.00,000.00,022.7,021.7,000.0,031.2,024.4,18.8,0000.0,0002.89,0014.39,0000.84
2024-03-03 05:08:00,SystemResetWarning,0811.6,4.99,000.00,022.7,021.7,000.0,031.2,024.4,18.9,0000.0,0002.99,0014.32,0000.85
2024-03-03 05:09:00,SystemResetWarning,0811.7,4.99,000.00,022.7,021.7,000.0,031.2,024.4,18.9,0000.0,0003.03,0015.09,0000.86
2024-03-03 05:10:00,SystemResetWarning,0811.5,5.00,000.00,022.7,021.7,000.0,031.2,024.4,18.9,0000.0,0003.09,0014.94,0000.86
2024-03-03 05:11:00,SystemResetWarning,0811.6,5.01,000.00,022.6,021.7,000.0,031.2,024.4,18.9,0000.0,0003.09,0015.02,0000.86
2024-03-03 05:12:00,SystemResetWarning,0811.6,5.01,000.00,022.6,021.7,000.0,031.2,024.4,18.9,0000.0,0003.14,0014.95,0000.86
2024-03-03 05:13:00,SystemResetWarning,0811.6,5.01,000.00,022.6,021.7,000.0,031.2,024.4,18.9,0000.0,0003.11,0015.51,0000.84
2024-03-03 05:14:00,SystemResetWarning,0811.6,5.00,000.00,022.6,021.7,000.0,031.2,024.4,18.8,0000.0,0003.08,0015.06,0000.84
2024-03-03 05:15:00,SystemResetWarning,0811.7,5.00,000.00,022.6,021.7,000.0,031.2,024.4,18.8,0000.0,0003.10,0015.38,0000.85
2024-03-03 05:16:00,SystemResetWarning,0811.7,4.99,000.00,022.6,021.7,000.0,031.2,024.5,18.7,0000.0,0003.14,0014.07,0000.85
2024-03-03 05:17:00,SystemResetWarning,0811.6,5.00,000.00,022.6,021.7,000.0,031.2,024.5,18.6,0000.0,0003.12,0013.81,0000.84
2024-03-03 05:18:00,SystemResetWarning,0811.6,5.02,000.00,022.6,021.7,000.0,031.2,024.4,18.6,0000.0,0003.09,0012.86,0000.83
2024-03-03 05:19:00,SystemResetWarning,0811.6,5.00,000.00,022.6,021.7,000.0,031.1,024.4,18.8,0000.0,0002.95,0012.56,0000.82
2024-03-03 05:20:00,SystemResetWarning,0811.6,4.99,000.00,022.6,021.7,000.0,031.1,024.3,19.0,0000.0,0002.96,0012.18,0000.82
2024-03-03 05:21:00,SystemResetWarning,0811.7,4.99,000.00,022.6,021.6,000.0,031.1,024.2,19.2,0000.0,0002.95,0011.52,0000.82
2024-03-03 05:22:00,SystemResetWarning,0811.7,5.00,000.00,022.5,021.6,000.0,031.1,024.2,19.4,0000.0,0002.99,0011.32,0000.81
2024-03-03 05:23:00,SystemResetWarning,0811.6,5.00,000.00,022.5,021.6,000.0,031.0,024.2,19.4,0000.0,0002.97,0010.79,0000.81
2024-03-03 05:24:00,SystemResetWarning,0811.6,5.00,000.00,022.5,021.5,000.0,031.0,024.2,19.4,0000.0,0002.98,0010.96,0000.81
2024-03-03 05:25:00,SystemResetWarning,0811.5,5.00,000.00,022.5,021.5,000.0,031.0,024.1,19.5,0000.0,0003.02,0011.21,0000.80
2024-03-03 05:26:00,SystemResetWarning,0811.5,5.01,000.00,022.4,021.5,000.0,031.0,024.1,19.5,0000.0,0003.03,0011.89,0000.78
2024-03-03 05:27:00,SystemResetWarning,0811.5,5.00,000.00,022.4,021.5,000.0,031.0,024.1,19.6,0000.0,0002.98,0011.64,0000.79
2024-03-03 05:28:00,SystemResetWarning,0811.4,5.01,000.00,022.4,021.4,000.0,031.0,024.1,19.6,0000.0,0002.99,0011.91,0000.79
2024-03-03 05:29:00,SystemResetWarning,0811.3,5.00,000.00,022.4,021.4,000.0,031.0,024.2,19.7,0000.0,0002.91,0011.98,0000.79
2024-03-03 05:30:00,SystemResetWarning,0811.3,5.00,000.00,022.4,021.5,000.0,030.9,024.1,19.8,0000.0,0002.93,0012.07,0000.80
2024-03-03 05:31:00,SystemResetWarning,0811.3,5.00,000.00,022.4,021.4,000.0,030.9,024.1,19.9,0000.0,0002.99,0012.12,0000.81
2024-03-03 05:32:00,SystemResetWarning,0811.4,5.00,000.00,022.4,021.4,000.0,030.9,024.1,19.9,0000.0,0003.04,0011.83,0000.80
2024-03-03 05:33:00,SystemResetWarning,0811.4,5.00,000.00,022.4,021.4,000.0,030.9,024.1,19.9,0000.0,0003.04,0011.94,0000.79
2024-03-03 05:34:00,SystemResetWarning,0811.3,5.00,000.00,022.4,021.4,000.0,030.9,024.2,20.0,0000.0,0003.04,0012.12,0000.77
2024-03-03 05:35:00,SystemResetWarning,0811.2,5.00,000.00,022.3,021.4,000.0,030.9,024.1,20.2,0000.0,0003.09,0011.51,0000.76
2024-03-03 05:36:00,SystemResetWarning,0811.2,5.00,000.00,022.3,021.4,000.0,030.9,024.2,20.2,0000.0,0003.03,0010.78,0000.75
2024-03-03 05:37:00,SystemResetWarning,0811.2,4.99,000.00,022.3,021.4,000.0,030.9,024.2,20.3,0000.0,0002.96,0011.16,0000.76
2024-03-03 05:38:00,SystemResetWarning,0811.2,4.99,000.00,022.3,021.5,000.0,030.9,024.2,20.3,0000.0,0002.92,0011.65,0000.74
2024-03-03 05:39:00,SystemResetWarning,0811.2,5.00,000.00,022.3,021.5,000.0,030.9,024.2,20.4,0000.0,0002.89,0012.36,0000.73
2024-03-03 05:40:00,SystemResetWarning,0811.2,5.00,000.00,022.3,021.5,000.0,030.9,024.2,20.4,0000.0,0002.92,0012.28,0000.70
2024-03-03 05:41:00,SystemResetWarning,0811.1,5.00,000.00,022.3,021.5,000.0,030.9,024.2,20.4,0000.0,0002.88,0012.50,0000.68
2024-03-03 05:42:00,SystemResetWarning,0811.1,5.00,000.00,022.3,021.4,000.0,030.8,024.1,20.5,0000.0,0002.84,0012.71,0000.65
2024-03-03 05:43:00,SystemResetWarning,0811.1,5.00,000.00,022.3,021.4,000.0,030.8,024.1,20.5,0000.0,0002.86,0012.77,0000.64
2024-03-03 05:44:00,SystemResetWarning,0811.1,5.00,000.00,022.3,021.4,000.0,030.8,024.1,20.5,0000.0,0002.79,0012.79,0000.63
2024-03-03 05:45:00,SystemResetWarning,0811.1,5.01,000.00,022.3,021.4,000.0,030.8,024.1,20.7,0000.0,0002.79,0013.77,0000.63
2024-03-03 05:46:00,SystemResetWarning,0811.2,5.01,000.00,022.3,021.4,000.0,030.8,024.1,20.7,0000.0,0002.66,0014.52,0000.63
2024-03-03 05:47:00,SystemResetWarning,0811.1,5.01,000.00,022.3,021.4,000.0,030.8,024.1,20.7,0000.0,0002.66,0014.90,0000.63
2024-03-03 05:48:00,SystemResetWarning,0811.2,5.00,000.00,022.3,021.4,000.0,030.8,024.1,20.7,0000.0,0002.72,0014.24,0000.62
2024-03-03 05:49:00,SystemResetWarning,0811.1,5.00,000.00,022.3,021.4,000.0,030.8,024.1,20.8,0000.0,0002.72,0013.29,0000.62
2024-03-03 05:50:00,SystemResetWarning,0811.2,4.99,000.00,022.3,021.4,000.0,030.8,024.1,20.8,0000.0,0002.63,0012.41,0000.62
2024-03-03 05:51:00,SystemResetWarning,0811.2,5.00,000.00,022.3,021.4,000.0,030.8,024.1,20.8,0000.0,0002.64,0012.88,0000.64
2024-03-03 05:52:00,SystemResetWarning,0811.1,4.99,000.00,022.3,021.4,000.0,030.8,024.1,20.8,0000.0,0002.86,0013.47,0000.67
2024-03-03 05:53:00,SystemResetWarning,0811.0,5.00,000.00,022.3,021.4,000.0,030.8,024.1,20.8,0000.0,0002.99,0013.63,0000.67
2024-03-03 05:54:00,SystemResetWarning,0811.0,5.00,000.00,022.3,021.4,000.0,030.8,024.1,20.8,0000.0,0002.96,0013.71,0000.67
2024-03-03 05:55:00,SystemResetWarning,0811.0,5.00,000.00,022.3,021.4,000.0,030.8,024.1,20.8,0000.0,0002.82,0014.15,0000.68
2024-03-03 05:56:00,SystemResetWarning,0810.9,5.01,000.00,022.2,021.4,000.0,030.8,024.1,20.8,0000.0,0002.81,0013.22,0000.70
2024-03-03 05:57:00,SystemResetWarning,0811.0,5.00,000.00,022.2,021.4,000.0,030.8,024.1,20.9,0000.0,0002.84,0013.63,0000.71
2024-03-03 05:58:00,SystemResetWarning,0811.0,4.99,000.00,022.2,021.4,000.0,030.8,024.1,20.9,0000.0,0002.97,0013.45,0000.72
2024-03-03 05:59:00,SystemResetWarning,0811.0,4.99,000.00,022.2,021.4,000.0,030.8,024.1,20.9,0000.0,0003.01,0013.38,0000.74
